Probability
0 0 0 0 0 0 0 0 0 0 0 0 0 0 0 0 0 0 0 0 0 0 0 0 0 0 0 0 0 0 0 0 0 0 0 0 0 0
0 0 0 0 0 0 0 0 0 0 0 0 0 0 0 0 0 0 0 0 0 0 0 0 0 0 0 0 0 0 0 0 0 0 0 0 0 0
0 0 0 0 0 0 0 0 0 0 0 0 0 0 0 0 0 0 0 0 0 0 0 0 0 0 0 0 0 0 0 0 0 0 0 0 0 0
0 0 0 0 0 0 0 0 0 0 0 0 0 0 0 0 0 0 0 0 0 0 0 0 0 0 0 0 0 0 0 0 0 0 0 0 0 0
0 0 0 0 0 0 0 0 0 0 0 0 0 0 0 0 0 0 0 0 0 0 0 0 0 0 0 0 0 0 0 0 0 0 0 0 0 0
0 0 0 0 0 0 0 0 0 0 0 0 0 0 0 0 0 0 0 0 0 0 0 0 0 0 0 0 0 0 0 0 0 0 0 0 0 0
0 0 0 0 0 0 0 0 0 0 0 0 0 0 0 0 0 0 0 0 0 0 0 0 0 0 0 0 0 0 0 0 0 0 0 0 0 0
0 0 0 0 0 0 0 0 0 0 0 0 0 0 0 0 0 0 0 0 0 0 0 0 0 0 0 0 0 0 0 0 0 0 0 0 0 0
0 0 0 0 0 0 0 0 0 0 0 0 0 0 0 0 0 0 0 0 0 0 0 0 0 0 0 0 0 0 0 0 0 0 0 0 0 0
0 0 0 0 0 0 0 0 0 0 0 0 0 0 0 0 0 0 0 0 0 0 0 0 0 0 0 0 0 0 0 0 0 0 0 0 0 0
0 0 0 0 0 0 0 0 0 0 0 0 0 0 0 0 0 0 0 0 0 0 0 0 0 0 0 0 0 0 0 0 0 0 0 0 0 0
0 0 0 0 0 0 0 0 0 0 0 0 0 0 0 0 0 0 0 0 0 0 0 0 0 0 0 0 0 0 0 0 0 0 0 0 0 0
0 0 0 0 0 0 0 0 0 0 0 0 0 0 0 0 0 0 0 0 0 0 0 0 0 0 0 0 0 0 0 0 0 0 0 0 0 0
0 0 0 0 0 0 0 0 0 0 0 0 0 0 0 0 0 0 0 0 0 0 0 0 0 0 0 0 0 0 0 0 0 0 0 0 0 0
0 0 0 0 0 0 0 0 0 0 0 0 0 0 0 0 0 0 0 0 0 0 0 0 0 0 0 0 0 0 0 0 0 0 0 0 0 0
0 0 0 0 0 0 0 0 0 0 0 0 0 0 0 0 0 0 0 0 0 0 0 0 0 0 0 0 0 0 0 0 0 0 0 0 0 0
0 0 0 0 0 0 0 0 0 0 0 0 0 0 0 0 0 0 0 0 0 0 0 0 0 0 0 0 0 0 0 0 0 0 0 0 0 0
0 0 0 0 0 0 0 0 0 0 0 0 0 0 0 0 0 0 0 0 0 0 0 0 0 0 0 0 0 0 0 0 0 0 0 0 0 0
0 0 0 0 0 0 0 0 0 0 0 0 0 0 0 0 0 0 0 0 0 0 0 0 0 0 0 0 0 0 0 0 0 0 0 0 0 0
0 0 0 0 0 0 0 0 0 0 0 0 0 0 0 0 0 0 0 0 0 0 0 0 0 0 0 0 0 0 0 0 0 0 0 0 0 0
0 0 0 0 0 0 0 0 0 0 0 0 0 0 0 0 0 0 0 0 0 0 0 0 0 0 0 0 0 0 0 0 0 0 0 0 0 0
0 0 0 0 0 0 0 0 0 0 0 0 0 0 0 0 0 0 0 0 0 0 0 0 0 0 0 0 0 0 0 0 0 0 0 0 0 0
0 0 0 0 0 0 0 0 0 0 0 0 0 0 0 0 0 0 0 0 0 0 0 0 0 0 0 0 0 0 0 0 0 0 0 0 0 0
Wind_Speed
2 2 2 3 2 3 3 3 3 5 5 3 2 2 2 3 6 5 4 9 12 12 12 13 12 11 11 12 12 12 12 12 12 12 12 12 13 13
2 2 3 3 3 3 3 3 4 4 6 3 3 3 4 5 8 6 6 12 12 13 13 13 13 12 11 12 12 12 12 12 12 13 14 14 14 14
2 3 4 4 3 3 3 4 4 4 7 6 4 4 4 5 6 5 6 6 6 12 13 13 13 12 12 12 13 13 13 13 13 13 14 14 14 14
3 3 4 4 4 4 4 5 5 5 6 8 5 4 5 5 6 6 6 6 5 11 14 14 13 13 13 13 13 13 13 13 13 14 14 15 15 15
4 4 5 4 5 4 5 5 5 5 5 6 6 5 4 5 5 6 6 6 7 9 12 12 12 13 13 13 13 13 14 14 14 15 15 15 15 15
4 5 5 5 5 6 5 6 6 6 5 5 6 5 5 4 4 5 6 5 6 6 9 10 12 13 14 14 14 14 15 15 15 16 16 15 15 16
4 5 5 7 8 7 6 5 5 5 5 5 6 5 5 4 5 4 7 6 6 5 5 6 6 6 8 11 13 14 15 16 16 16 16 16 16 17
5 5 6 7 9 12 13 12 10 7 6 6 6 6 7 6 5 6 7 7 7 3 4 7 5 7 6 6 12 16 17 17 17 17 16 17 17 18
4 5 5 6 8 6 10 12 11 13 13 8 8 8 8 7 7 8 7 8 8 5 5 8 6 8 7 8 16 17 18 18 18 18 17 17 18 17
5 5 5 5 7 8 7 7 7 8 10 8 7 8 8 7 8 8 8 8 8 6 6 8 7 7 8 7 14 16 17 17 17 18 18 17 17 17
5 5 6 5 10 13 8 7 8 8 10 13 13 12 14 13 10 6 6 6 8 6 4 6 6 7 7 7 9 14 14 16 17 18 18 18 17 16
5 5 9 9 12 13 7 6 8 8 7 7 8 9 8 9 11 7 5 7 7 6 4 4 5 5 6 5 5 6 8 13 16 17 17 16 16 9
5 4 5 12 14 14 11 6 9 9 6 5 5 5 5 5 5 5 5 6 7 7 5 4 5 5 6 7 6 6 6 7 8 10 12 15 15 12
5 5 6 13 14 14 10 11 14 11 5 5 5 5 5 5 5 5 7 7 7 9 8 7 7 6 7 8 8 6 5 6 6 7 6 10 12 15
6 10 12 14 13 9 11 13 10 5 4 5 6 6 5 5 6 6 6 7 7 8 7 7 7 7 7 8 8 7 7 6 5 5 5 5 6 6
6 8 11 12 9 9 9 7 4 4 5 5 6 6 5 5 5 5 5 5 6 6 6 7 7 7 7 8 8 8 7 5 4 5 5 5 5 6
5 3 3 4 4 4 4 4 4 4 5 4 5 6 6 6 6 5 5 5 5 6 6 5 5 6 7 7 7 8 7 6 5 5 5 6 6 6
6 3 4 4 5 5 5 5 5 5 5 5 5 5 6 6 6 5 5 5 5 6 6 5 5 5 4 5 7 7 6 6 5 4 5 6 7 6
4 4 4 5 5 5 5 5 5 5 5 5 5 5 6 6 6 6 6 5 6 6 5 5 4 4 6 7 5 5 5 6 5 5 5 6 8 7
3 4 5 5 5 5 5 5 6 5 5 5 5 5 5 6 6 6 6 6 6 6 6 5 4 5 6 7 6 6 8 7 6 6 6 6 7 9
5 5 5 5 5 6 6 6 6 6 6 6 6 6 5 5 6 6 6 10 8 6 7 7 6 9 5 4 5 6 5 8 8 7 6 6 7 7
5 5 5 5 6 6 6 6 6 6 6 6 6 6 5 5 6 7 7 7 7 7 8 7 5 4 4 5 7 8 7 7 8 11 11 9 6 5
5 5 5 6 6 6 6 6 7 7 6 6 6 6 6 6 6 6 7 7 7 7 7 6 5 4 5 6 6 7 8 8 6 5 6 9 11 12
Wind_Direction
289 283 270 268 266 264 262 256 258 280 281 276 275 265 295 296 304 303 296 303 307 307 306 304 298 294 291 289 288 287 285 285 284 283 282 282 282 282
294 292 286 276 266 263 263 261 252 253 270 271 272 275 283 291 298 299 292 301 302 301 299 299 296 290 289 287 285 284 283 282 280 280 278 276 276 279
297 292 290 283 275 265 261 258 257 251 264 275 276 278 272 278 287 283 283 278 279 291 293 291 292 291 287 286 286 283 281 280 278 276 276 274 275 276
288 288 290 290 283 276 266 259 257 253 256 271 279 274 270 270 272 276 285 285 276 286 288 287 286 287 287 285 285 282 280 279 278 277 274 271 270 273
272 275 279 283 286 281 275 269 264 264 256 262 275 273 270 269 274 279 278 276 280 282 285 284 285 286 288 286 286 286 282 278 275 274 274 272 271 271
270 271 272 270 274 279 279 272 269 267 260 259 270 273 270 265 263 278 286 279 282 285 283 284 285 286 286 286 284 285 284 279 275 272 271 271 270 270
278 276 278 281 281 282 282 280 277 270 268 262 268 277 277 278 275 275 282 286 278 269 273 275 275 269 272 277 279 279 280 279 276 273 269 268 269 268
285 288 287 288 289 293 294 293 290 285 281 275 271 270 274 275 277 278 280 284 283 256 267 276 268 267 264 259 272 276 276 277 277 274 269 266 267 265
282 289 293 295 300 296 293 295 294 290 283 279 275 271 270 270 272 274 271 273 276 278 278 279 269 267 268 271 278 276 275 275 276 274 270 267 266 264
274 275 279 286 287 291 287 288 284 285 280 275 267 268 268 264 260 266 270 275 274 266 261 274 273 270 273 267 272 272 272 274 275 275 272 268 266 264
277 278 282 278 288 295 294 289 291 290 291 283 280 283 285 288 287 283 278 277 281 276 251 260 277 284 275 264 264 268 271 274 275 275 275 271 266 263
285 283 287 291 294 296 291 285 288 290 292 295 294 294 290 286 287 274 266 270 278 281 259 259 276 293 286 259 250 259 268 271 272 274 274 275 270 262
290 289 288 296 298 298 299 291 292 299 296 294 292 290 288 279 275 268 261 259 264 268 275 281 278 274 270 283 277 265 260 263 265 266 268 268 269 264
291 289 289 297 300 302 304 302 304 309 304 298 292 290 291 287 282 279 274 268 262 267 273 269 269 268 275 281 282 277 267 265 263 265 264 265 265 266
292 294 299 304 308 309 307 310 313 312 304 298 294 292 289 287 288 284 281 279 276 272 274 271 269 268 262 269 279 283 286 280 264 260 264 264 261 261
300 303 308 310 309 310 312 312 307 297 296 291 294 296 296 292 288 284 284 286 286 286 277 271 271 268 267 269 271 278 279 277 280 274 272 273 270 261
310 312 310 309 306 303 302 300 299 300 297 292 293 296 297 294 292 291 283 280 276 285 292 290 278 268 264 268 269 270 274 275 277 283 280 278 272 267
312 301 297 293 292 294 295 296 294 293 292 292 290 291 292 294 295 293 287 283 282 282 285 294 302 301 286 269 253 264 270 276 282 286 285 278 278 273
309 295 291 289 287 288 289 289 289 289 289 286 285 287 288 289 290 290 288 284 282 281 282 285 285 281 284 286 280 256 268 282 284 279 272 269 274 278
295 291 291 290 288 287 287 287 288 289 287 286 283 283 284 285 287 285 284 283 283 283 281 277 265 255 257 272 283 284 270 267 272 276 278 278 278 281
292 288 287 287 287 285 284 283 282 283 284 284 282 279 279 280 278 278 279 283 285 282 277 275 269 278 279 277 277 281 278 270 271 270 271 275 283 283
287 287 287 284 285 284 283 282 282 281 281 279 279 278 276 275 276 275 274 277 277 274 275 279 282 277 263 260 271 282 289 291 283 278 271 262 260 262
284 284 284 284 282 282 282 280 279 280 279 277 278 279 277 274 275 275 273 272 273 274 278 282 281 271 266 264 271 279 284 288 289 289 279 277 268 266